{"data":{"norad_id":46357,"intl_designator":"2020-062AJ","name":"STARLINK-1666","alt_names":[],"object_type":"PAYLOAD","status":"ACTIVE","operator":null,"country":"US","launch_date":"2020-09-03","launch_site_code":"AFETR","launch_vehicle":null,"mission":null,"orbit_class":"UNKNOWN","rcs_meters":null,"size_class":null,"mass_kg":null,"dimensions":null,"purposes":["comms"],"wikipedia_slug":null,"has_3d_model":false,"image_url":null,"decayed_at":null,"tle_current":{"epoch":"2026-07-29T13:48:22.877856Z","epoch_age_seconds":4594689,"freshness":"OLD","line1":"1 46357U 20062AJ  26210.57526479  .11150427  12570-4  32768-3 0  9990","line2":"2 46357  53.0143 343.7176 0009126 301.9168  58.0992 16.44535851327311","mean_motion":16.44535851,"eccentricity":0.0009126,"inclination_deg":53.0143,"raan_deg":343.7176,"arg_perigee_deg":301.9168,"mean_anomaly_deg":58.0992,"bstar":0.00032768,"rev_number":32731,"period_min":87.56270038895,"perigee_km":147.80324500961,"apogee_km":159.72527118589,"semimajor_km":6531.9012580977,"source":"CELESTRAK","updated_at":"2026-07-30T09:00:32.436966Z"}}}